sat.trackr.live / text

‹ back to catalog

STARLINK-35338

NORAD 66250 · 2025-245S

PAYLOAD ACTIVE UNKNOWN

§ Identity

Operator
Country
US
Launch date
2025-10-29
Launch site
AFETR
Launch vehicle
Mass (kg)
RCS (m²)

Purposes: comms

External: N2YO · Heavens-Above · Gunter

§ Orbital elements

Epoch: 2026-05-25T02:59:53.934720Z

Period
94.01 min
Inclination
53.1608°
Eccentricity
0.0001728
Mean motion
15.31715211 rev/d
Perigee alt
469.5 km
Apogee alt
471.9 km
Semi-major
6,848.8 km
B*
8.3671e-4
RAAN
288.5380°
Arg perigee
80.2159°
Mean anomaly
279.9038°
Rev number
3,286

§ Raw data

STARLINK-353381 66250U 25245S   26145.12492980  .00025701  00000+0  83671-3 0  99922 66250  53.1608 288.5380 0001728  80.2159 279.9038 15.31715211 32865

JSON: /api/v1/satellites/66250 · /tle

For live sub-satellite position, see the globe view (requires WebGL).

§ Visibility from observer

Set your observer location to see the next 7 days of passes ≥ 10°. The values pass through the URL so the page stays shareable.

No JS? Fill the form by hand. The geolocation button needs JavaScript.